Tracking 27107 objects as of 20-Mar-2023
HD Live streaming from Space Station
objects crossing your sky now

STARLINK-3970

Track STARLINK-3970 now!
10-day predictions
STARLINK-3970 is classified as:


NORAD ID: 52706
Int'l Code: 2022-053BC
Perigee: 546.1 km
Apogee: 547.6 km
Inclination: 53.2 °
Period: 95.4 minutes
Semi major axis: 6917 km
RCS: Unknown
Launch date: May 18, 2022
Source: United States (US)
Launch site: AIR FORCE EASTERN TEST RANGE (AFETR)
Your satellite tracking list
Your tracking list is empty




NASA's NSSDC Master Catalog

Two Line Element Set (TLE):
1 52706U 22053BC  23079.07349605  .00012814  00000-0  82146-3 0  9997
2 52706  53.2158 327.6385 0001068  91.9148 268.1967 15.08851809 46999
Source of the keplerian elements: AFSPC